,,Stat1,,Stat2,,Stat3,,Stat4,,Wind1,,Wind1,
time,status,PR1M_SUM,status,RH1M_AVG,status,SR1M_AVG,status,TA1M_AVG,status,W1dAve1m,status,W1sAve1m,
2000-03-23, 00:01:00,VALID,0,VALID,99.9746,VALID,-0.0509425,VALID,20.2744,VALID,91,VALID,1.15372,
2000-03-23, 00:02:00,VALID,0,VALID,99.9583,VALID,-0.0169808,VALID,20.2513,VALID,104,VALID,0.965946,
2000-03-23, 00:03:00,VALID,0,VALID,99.971,VALID,-0.0169808,VALID,20.261,VALID,103,VALID,1.10116,
2000-03-23, 00:04:00,VALID,0,VALID,99.9557,VALID,-0.0509425,VALID,20.2448,VALID,93,VALID,0.938528,
2000-03-23, 00:05:00,VALID,0,VALID,99.9456,VALID,-0.0339617,VALID,20.2419,VALID,104,VALID,0.403429,
2000-03-23, 00:06:00,VALID,0,VALID,99.9494,VALID,-0.0849042,VALID,20.2615,VALID,107,VALID,0,
2000-03-23, 00:07:00,VALID,0,VALID,99.9532,VALID,-0.0679233,VALID,20.2578,VALID,109,VALID,0,
2000-03-23, 00:08:00,VALID,0,VALID,99.9608,VALID,-0.0849042,VALID,20.2585,VALID,109,VALID,0,
2000-03-23, 00:09:00,VALID,0,VALID,99.9519,VALID,-0.0509425,VALID,20.2647,VALID,112,VALID,0.0909455,
2000-03-23, 00:10:00,VALID,0,VALID,99.9532,VALID,-0.0509425,VALID,20.2613,VALID,120,VALID,0.488086,
2000-03-23, 00:11:00,VALID,0,VALID,99.9507,VALID,-0.0169808,VALID,20.2478,VALID,108,VALID,0.372466,
2000-03-23, 00:12:00,VALID,0,VALID,99.9341,VALID,-0.0509425,VALID,20.2222,VALID,107,VALID,0.413616,
2000-03-23, 00:13:00,VALID,0,VALID,99.9367,VALID,-0.0339617,VALID,20.2481,VALID,107,VALID,0.309495,
2000-03-23, 00:14:00,VALID,0,VALID,99.9367,VALID,-0.0339617,VALID,20.258,VALID,107,VALID,0.0230263,
2000-03-23, 00:15:00,VALID,0,VALID,99.9468,VALID,-0.0509425,VALID,20.2744,VALID,107,VALID,0,
2000-03-23, 00:16:00,VALID,0,VALID,99.9507,VALID,-0.0339617,VALID,20.2675,VALID,107,VALID,0,
2000-03-23, 00:17:00,VALID,0,VALID,99.9494,VALID,-0.0509425,VALID,20.2806,VALID,107,VALID,0,
2000-03-23, 00:18:00,VALID,0,VALID,99.9596,VALID,0,VALID,20.2898,VALID,107,VALID,0,
2000-03-23, 00:19:00,VALID,0,VALID,99.9494,VALID,0,VALID,20.3062,VALID,107,VALID,0,
2000-03-23, 00:20:00,VALID,0,VALID,99.9227,VALID,-0.0849042,VALID,20.268,VALID,107,VALID,0,
2000-03-23, 00:21:00,VALID,0,VALID,99.9138,VALID,0,VALID,20.2416,VALID,107,VALID,0,
2000-03-23, 00:22:00,VALID,0,VALID,99.8985,VALID,-0.0509425,VALID,20.2029,VALID,103,VALID,0.0907452,
2000-03-23, 00:23:00,VALID,0,VALID,99.8667,VALID,-0.0339617,VALID,20.1415,VALID,17,VALID,0.0614984,
2000-03-23, 00:24:00,VALID,0,VALID,99.8438,VALID,-0.0339617,VALID,20.0863,VALID,287,VALID,0,
2000-03-23, 00:25:00,VALID,0,VALID,99.8616,VALID,0,VALID,20.0831,VALID,287,VALID,0,
2000-03-23, 00:26:00,VALID,0,VALID,99.8845,VALID,-0.0679233,VALID,20.0769,VALID,287,VALID,0,
2000-03-23, 00:27:00,VALID,0,VALID,99.8795,VALID,-0.0679233,VALID,20.0481,VALID,287,VALID,0,
2000-03-23, 00:28:00,VALID,0,VALID,99.9023,VALID,-0.0339617,VALID,20.0605,VALID,302,VALID,0,
2000-03-23, 00:29:00,VALID,0,VALID,99.9252,VALID,-0.0509425,VALID,20.0704,VALID,302,VALID,0,
2000-03-23, 00:30:00,VALID,0,VALID,99.943,VALID,-0.0169808,VALID,20.0771,VALID,302,VALID,0,
2000-03-23, 00:31:00,VALID,0,VALID,99.957,VALID,-0.0509425,VALID,20.1062,VALID,302,VALID,0,
2000-03-23, 00:32:00,VALID,0,VALID,99.9557,VALID,-0.0169808,VALID,20.0928,VALID,305,VALID,0,
2000-03-23, 00:33:00,VALID,0,VALID,99.9583,VALID,-0.0509425,VALID,20.0935,VALID,305,VALID,0,
2000-03-23, 00:34:00,VALID,0,VALID,99.9672,VALID,-0.0509425,VALID,20.0866,VALID,305,VALID,0,
2000-03-23, 00:35:00,VALID,0,VALID,99.9634,VALID,-0.0169808,VALID,20.0833,VALID,305,VALID,0,
2000-03-23, 00:36:00,VALID,0,VALID,99.9774,VALID,-0.0509425,VALID,20.0965,VALID,305,VALID,0,
2000-03-23, 00:37:00,VALID,0,VALID,99.9797,VALID,-0.0169808,VALID,20.093,VALID,305,VALID,0,
2000-03-23, 00:38:00,VALID,0,VALID,99.9697,VALID,-0.0509425,VALID,20.0736,VALID,306,VALID,0,
2000-03-23, 00:39:00,VALID,0,VALID,99.9735,VALID,0,VALID,20.0607,VALID,304,VALID,0,
2000-03-23, 00:40:00,VALID,0,VALID,99.9799,VALID,-0.0509425,VALID,20.0736,VALID,304,VALID,0,
2000-03-23, 00:41:00,VALID,0,VALID,99.9858,VALID,-0.0169808,VALID,20.0933,VALID,304,VALID,0,
2000-03-23, 00:42:00,VALID,0,VALID,99.9898,VALID,-0.0169808,VALID,20.0935,VALID,256,VALID,0,
2000-03-23, 00:43:00,VALID,0,VALID,99.9774,VALID,-0.0509425,VALID,20.0804,VALID,247,VALID,0,
2000-03-23, 00:44:00,VALID,0,VALID,99.9733,VALID,-0.0849042,VALID,20.0809,VALID,245,VALID,0,
2000-03-23, 00:45:00,VALID,0,VALID,99.9921,VALID,-0.0509425,VALID,20.0841,VALID,233,VALID,0,
2000-03-23, 00:46:00,VALID,0,VALID,100,VALID,-0.0849042,VALID,20.107,VALID,149,VALID,0,
2000-03-23, 00:47:00,VALID,0,VALID,99.9957,VALID,-0.0849042,VALID,20.107,VALID,121,VALID,0,
2000-03-23, 00:48:01,VALID,0,VALID,100,VALID,-0.0169808,VALID,20.1062,VALID,124,VALID,0,
2000-03-23, 00:49:00,VALID,0,VALID,99.998,VALID,0,VALID,20.1164,VALID,124,VALID,0,
2000-03-23, 00:50:00,VALID,0,VALID,99.9967,VALID,-0.0339617,VALID,20.1159,VALID,124,VALID,0,
2000-03-23, 00:51:00,VALID,0,VALID,99.9977,VALID,-0.0169808,VALID,20.1355,VALID,124,VALID,0,
2000-03-23, 00:52:00,VALID,0,VALID,99.999,VALID,-0.0339617,VALID,20.1288,VALID,124,VALID,0,
2000-03-23, 00:53:00,VALID,0,VALID,99.9908,VALID,0.0169808,VALID,20.1256,VALID,124,VALID,0,
2000-03-23, 00:54:00,VALID,0,VALID,99.999,VALID,0.0339617,VALID,20.1122,VALID,124,VALID,0,
2000-03-23, 00:55:00,VALID,0,VALID,99.9967,VALID,0,VALID,20.132,VALID,142,VALID,0,
2000-03-23, 00:56:00,VALID,0,VALID,99.9969,VALID,0,VALID,20.1383,VALID,142,VALID,0,
2000-03-23, 00:57:00,VALID,0,VALID,99.9756,VALID,0.0169808,VALID,20.1191,VALID,143,VALID,0,
2000-03-23, 00:58:00,VALID,0,VALID,99.8833,VALID,-0.0169808,VALID,20.0413,VALID,154,VALID,0,
2000-03-23, 00:59:01,VALID,0,VALID,99.8693,VALID,0.0169808,VALID,19.9638,VALID,155,VALID,0,
2000-03-23, 01:00:00,VALID,0,VALID,99.8973,VALID,0.0169808,VALID,19.9412,VALID,154,VALID,0,
2000-03-23, 01:01:00,VALID,0,VALID,99.9456,VALID,-0.0169808,VALID,19.9541,VALID,151,VALID,0,
2000-03-23, 01:02:00,VALID,0,VALID,99.9672,VALID,-0.0169808,VALID,19.9512,VALID,136,VALID,0,
2000-03-23, 01:03:00,VALID,0,VALID,99.9685,VALID,-0.0339617,VALID,19.9576,VALID,130,VALID,0,
2000-03-23, 01:04:00,VALID,0,VALID,99.971,VALID,0,VALID,19.9549,VALID,130,VALID,0,
2000-03-23, 01:05:00,VALID,0,VALID,99.9672,VALID,-0.0339617,VALID,19.9387,VALID,132,VALID,0,
2000-03-23, 01:06:00,VALID,0,VALID,99.9761,VALID,-0.0339617,VALID,19.9355,VALID,129,VALID,0,
2000-03-23, 01:07:00,VALID,0,VALID,99.9797,VALID,0,VALID,19.928,VALID,139,VALID,0,
2000-03-23, 01:08:00,VALID,0,VALID,99.924,VALID,0,VALID,19.8925,VALID,162,VALID,0,
2000-03-23, 01:09:01,VALID,0,VALID,99.8985,VALID,0,VALID,19.8607,VALID,172,VALID,0,
2000-03-23, 01:10:01,VALID,0,VALID,99.91,VALID,-0.0339617,VALID,19.8252,VALID,180,VALID,0,
2000-03-23, 01:11:00,VALID,0,VALID,99.9265,VALID,-0.0169808,VALID,19.812,VALID,166,VALID,0,
2000-03-23, 01:12:00,VALID,0,VALID,99.9596,VALID,-0.0339617,VALID,19.8128,VALID,146,VALID,0.0853041,
2000-03-23, 01:13:00,VALID,0,VALID,99.9825,VALID,-0.0169808,VALID,19.8058,VALID,131,VALID,0.627204,
2000-03-23, 01:14:00,VALID,0,VALID,99.9977,VALID,-0.0169808,VALID,19.8294,VALID,114,VALID,0.454975,
2000-03-23, 01:15:00,VALID,0,VALID,99.999,VALID,0,VALID,19.8252,VALID,118,VALID,0.305304,
2000-03-23, 01:16:00,VALID,0,VALID,100,VALID,0,VALID,19.8453,VALID,105,VALID,0.167668,
2000-03-23, 01:17:00,VALID,0,VALID,99.999,VALID,-0.0169808,VALID,19.8481,VALID,113,VALID,0.201953,
2000-03-23, 01:18:00,VALID,0,VALID,99.9941,VALID,-0.0169808,VALID,19.8222,VALID,122,VALID,0.641859,
2000-03-23, 01:19:00,VALID,0,VALID,99.998,VALID,-0.0169808,VALID,19.8098,VALID,122,VALID,0.674548,
2000-03-23, 01:20:00,VALID,0,VALID,100,VALID,0,VALID,19.8163,VALID,103,VALID,0.868421,
2000-03-23, 01:21:01,VALID,0,VALID,99.9967,VALID,-0.0169808,VALID,19.8128,VALID,109,VALID,0.864383,
2000-03-23, 01:22:00,VALID,0,VALID,100,VALID,-0.0339617,VALID,19.8061,VALID,103,VALID,0.759375,
2000-03-23, 01:23:00,VALID,0,VALID,100,VALID,0,VALID,19.8095,VALID,106,VALID,0.980574,
2000-03-23, 01:24:00,VALID,0,VALID,100,VALID,-0.0169808,VALID,19.8033,VALID,98,VALID,0.997545,
2000-03-23, 01:25:00,VALID,0,VALID,100,VALID,-0.0169808,VALID,19.8128,VALID,105,VALID,1.00381,
2000-03-23, 01:26:00,VALID,0,VALID,99.998,VALID,0,VALID,19.7802,VALID,130,VALID,0.892475,
2000-03-23, 01:27:00,VALID,0,VALID,100,VALID,0,VALID,19.7606,VALID,136,VALID,0.692835,
2000-03-23, 01:28:00,VALID,0,VALID,99.999,VALID,0.0339617,VALID,19.7509,VALID,134,VALID,0.546074,
2000-03-23, 01:29:00,VALID,0,VALID,100,VALID,0,VALID,19.7544,VALID,127,VALID,0.535473,
2000-03-23, 01:30:00,VALID,0,VALID,100,VALID,-0.0339617,VALID,19.7802,VALID,106,VALID,0.357617,
2000-03-23, 01:31:00,VALID,0,VALID,100,VALID,0,VALID,19.8028,VALID,105,VALID,0,
2000-03-23, 01:32:01,VALID,0,VALID,100,VALID,-0.0169808,VALID,19.822,VALID,79,VALID,0,
2000-03-23, 01:33:00,VALID,0,VALID,100,VALID,0,VALID,19.8128,VALID,69,VALID,0,
2000-03-23, 01:34:00,VALID,0,VALID,100,VALID,-0.0169808,VALID,19.777,VALID,58,VALID,0,
2000-03-23, 01:35:00,VALID,0,VALID,100,VALID,0,VALID,19.7929,VALID,91,VALID,0.597155,
2000-03-23, 01:36:00,VALID,0,VALID,100,VALID,-0.0339617,VALID,19.7608,VALID,88,VALID,0.425223,
2000-03-23, 01:37:00,VALID,0,VALID,100,VALID,-0.0509425,VALID,19.7616,VALID,86,VALID,0.0152344,
2000-03-23, 01:38:00,VALID,0,VALID,100,VALID,-0.0679233,VALID,19.7646,VALID,86,VALID,0,
2000-03-23, 01:39:00,VALID,0,VALID,100,VALID,0,VALID,19.7807,VALID,94,VALID,0,
2000-03-23, 01:40:00,VALID,0,VALID,100,VALID,0,VALID,19.8063,VALID,104,VALID,0,
2000-03-23, 01:41:00,VALID,0,VALID,100,VALID,0,VALID,19.8416,VALID,111,VALID,0,
2000-03-23, 01:42:00,VALID,0,VALID,100,VALID,0,VALID,19.8605,VALID,120,VALID,0,
2000-03-23, 01:43:01,VALID,0,VALID,100,VALID,0,VALID,19.864,VALID,119,VALID,0,
2000-03-23, 01:44:00,VALID,0,VALID,100,VALID,0.0169808,VALID,19.8838,VALID,100,VALID,0,
2000-03-23, 01:45:00,VALID,0,VALID,100,VALID,0,VALID,19.8739,VALID,87,VALID,0,
2000-03-23, 01:46:00,VALID,0,VALID,100,VALID,0.0169808,VALID,19.8707,VALID,90,VALID,0,
2000-03-23, 01:47:00,VALID,0,VALID,100,VALID,0.0169808,VALID,19.8736,VALID,89,VALID,0,
2000-03-23, 01:48:00,VALID,0,VALID,100,VALID,0.0169808,VALID,19.8796,VALID,128,VALID,0,
2000-03-23, 01:49:00,VALID,0,VALID,100,VALID,0,VALID,19.8379,VALID,127,VALID,0,
2000-03-23, 01:50:00,VALID,0,VALID,100,VALID,-0.0169808,VALID,19.8217,VALID,126,VALID,0,
2000-03-23, 01:51:00,VALID,0,VALID,100,VALID,0,VALID,19.8153,VALID,122,VALID,0,
2000-03-23, 01:52:00,VALID,0,VALID,100,VALID,0,VALID,19.7897,VALID,137,VALID,0,
2000-03-23, 01:53:01,VALID,0,VALID,100,VALID,-0.0169808,VALID,19.7611,VALID,167,VALID,0,
2000-03-23, 01:54:01,VALID,0,VALID,100,VALID,-0.0339617,VALID,19.7196,VALID,167,VALID,0,
2000-03-23, 01:55:00,VALID,0,VALID,100,VALID,-0.0679233,VALID,19.6967,VALID,162,VALID,0,
2000-03-23, 01:56:00,VALID,0,VALID,100,VALID,-0.0509425,VALID,19.7002,VALID,155,VALID,0,
2000-03-23, 01:57:00,VALID,0,VALID,100,VALID,0,VALID,19.7069,VALID,150,VALID,0,
2000-03-23, 01:58:00,VALID,0,VALID,100,VALID,-0.0679233,VALID,19.7102,VALID,130,VALID,0,
2000-03-23, 01:59:00,VALID,0,VALID,100,VALID,-0.0509425,VALID,19.7069,VALID,130,VALID,0,
2000-03-23, 02:00:00,VALID,0,VALID,100,VALID,0,VALID,19.6806,VALID,125,VALID,0,
2000-03-23, 02:01:00,VALID,0,VALID,100,VALID,-0.0169808,VALID,19.651,VALID,130,VALID,0,
2000-03-23, 02:02:00,VALID,0,VALID,100,VALID,-0.0169808,VALID,19.658,VALID,122,VALID,0,
2000-03-23, 02:03:00,VALID,0,VALID,100,VALID,0,VALID,19.6518,VALID,102,VALID,0,
2000-03-23, 02:04:01,VALID,0,VALID,100,VALID,-0.0169808,VALID,19.6518,VALID,96,VALID,0,
2000-03-23, 02:05:00,VALID,0,VALID,100,VALID,-0.0169808,VALID,19.6423,VALID,97,VALID,0,
2000-03-23, 02:06:00,VALID,0,VALID,100,VALID,-0.0169808,VALID,19.6259,VALID,93,VALID,0,
2000-03-23, 02:07:00,VALID,0,VALID,100,VALID,-0.0169808,VALID,19.6222,VALID,86,VALID,0,
2000-03-23, 02:08:00,VALID,0,VALID,100,VALID,-0.0169808,VALID,19.5999,VALID,66,VALID,0,
2000-03-23, 02:09:00,VALID,0,VALID,100,VALID,0,VALID,19.5641,VALID,53,VALID,0.628125,
2000-03-23, 02:10:00,VALID,0,VALID,100,VALID,-0.0169808,VALID,19.5512,VALID,66,VALID,0.420072,
2000-03-23, 02:11:00,VALID,0,VALID,100,VALID,-0.0339617,VALID,19.5482,VALID,84,VALID,0.508614,
2000-03-23, 02:12:00,VALID,0,VALID,100,VALID,-0.0509425,VALID,19.5487,VALID,83,VALID,0.307589,
2000-03-23, 02:13:00,VALID,0,VALID,100,VALID,-0.0169808,VALID,19.5546,VALID,58,VALID,0.065625,
2000-03-23, 02:14:00,VALID,0,VALID,100,VALID,-0.0169808,VALID,19.542,VALID,23,VALID,0.221423,
2000-03-23, 02:15:00,VALID,0,VALID,100,VALID,-0.0169808,VALID,19.5479,VALID,70,VALID,0.0209704,
2000-03-23, 02:16:00,VALID,0,VALID,100,VALID,-0.0169808,VALID,19.5549,VALID,132,VALID,0,
2000-03-23, 02:17:00,VALID,0,VALID,100,VALID,-0.0169808,VALID,19.5775,VALID,133,VALID,0,
2000-03-23, 02:18:00,VALID,0,VALID,100,VALID,0,VALID,19.5708,VALID,130,VALID,0.594151,
2000-03-23, 02:19:00,VALID,0,VALID,100,VALID,0,VALID,19.5643,VALID,131,VALID,1.06135,
2000-03-23, 02:20:00,VALID,0,VALID,100,VALID,0,VALID,19.5576,VALID,133,VALID,0.559005,
2000-03-23, 02:21:00,VALID,0,VALID,100,VALID,0,VALID,19.5546,VALID,148,VALID,0.46921,
2000-03-23, 02:22:00,VALID,0,VALID,100,VALID,-0.0169808,VALID,19.5584,VALID,150,VALID,0.498884,
2000-03-23, 02:23:00,VALID,0,VALID,100,VALID,0,VALID,19.5417,VALID,133,VALID,0.708676,
2000-03-23, 02:24:00,VALID,0,VALID,100,VALID,-0.0169808,VALID,19.5611,VALID,126,VALID,0.568412,
2000-03-23, 02:25:00,VALID,0,VALID,100,VALID,0.0169808,VALID,19.5743,VALID,116,VALID,0.510016,
2000-03-23, 02:26:01,VALID,0,VALID,100,VALID,0,VALID,19.5574,VALID,114,VALID,0.377467,
2000-03-23, 02:27:00,VALID,0,VALID,100,VALID,0,VALID,19.5479,VALID,104,VALID,0.592928,
2000-03-23, 02:28:00,VALID,0,VALID,100,VALID,0,VALID,19.5514,VALID,92,VALID,0.523237,
2000-03-23, 02:29:00,VALID,0,VALID,100,VALID,-0.0169808,VALID,19.5579,VALID,82,VALID,0.428125,
2000-03-23, 02:30:00,VALID,0,VALID,100,VALID,-0.0169808,VALID,19.5546,VALID,87,VALID,0.016653,
2000-03-23, 02:31:00,VALID,0,VALID,100,VALID,-0.0509425,VALID,19.5643,VALID,87,VALID,0,
2000-03-23, 02:32:00,VALID,0,VALID,100,VALID,-0.0339617,VALID,19.5519,VALID,83,VALID,0,
2000-03-23, 02:33:00,VALID,0,VALID,100,VALID,0,VALID,19.5092,VALID,66,VALID,0,
2000-03-23, 02:34:00,VALID,0,VALID,100,VALID,-0.0169808,VALID,19.5067,VALID,53,VALID,0,
2000-03-23, 02:35:00,VALID,0,VALID,100,VALID,-0.0339617,VALID,19.5164,VALID,74,VALID,0,
2000-03-23, 02:36:01,VALID,0,VALID,100,VALID,-0.0169808,VALID,19.5288,VALID,84,VALID,0,
2000-03-23, 02:37:01,VALID,0,VALID,100,VALID,-0.0509425,VALID,19.5387,VALID,82,VALID,0,
2000-03-23, 02:38:00,VALID,0,VALID,100,VALID,-0.0169808,VALID,19.5579,VALID,82,VALID,0,
2000-03-23, 02:39:00,VALID,0,VALID,100,VALID,0.0169808,VALID,19.5648,VALID,82,VALID,0,
2000-03-23, 02:40:00,VALID,0,VALID,100,VALID,-0.0169808,VALID,19.545,VALID,82,VALID,0,
2000-03-23, 02:41:00,VALID,0,VALID,100,VALID,-0.0339617,VALID,19.5777,VALID,82,VALID,0,
2000-03-23, 02:42:00,VALID,0,VALID,100,VALID,0,VALID,19.5872,VALID,82,VALID,0,
2000-03-23, 02:43:00,VALID,0,VALID,100,VALID,0,VALID,19.5996,VALID,82,VALID,0,
2000-03-23, 02:44:00,VALID,0,VALID,100,VALID,-0.0169808,VALID,19.6361,VALID,82,VALID,0,
2000-03-23, 02:45:00,VALID,0,VALID,100,VALID,-0.0169808,VALID,19.6391,VALID,82,VALID,0,
2000-03-23, 02:46:00,VALID,0,VALID,100,VALID,-0.0169808,VALID,19.6386,VALID,82,VALID,0,
2000-03-23, 02:47:00,VALID,0,VALID,100,VALID,0,VALID,19.6421,VALID,82,VALID,0,
2000-03-23, 02:48:01,VALID,0,VALID,100,VALID,-0.0509425,VALID,19.6396,VALID,42,VALID,0,
2000-03-23, 02:49:00,VALID,0,VALID,100,VALID,-0.0169808,VALID,19.6163,VALID,86,VALID,0,
2000-03-23, 02:50:00,VALID,0,VALID,100,VALID,-0.0339617,VALID,19.6197,VALID,91,VALID,0,
2000-03-23, 02:51:00,VALID,0,VALID,100,VALID,-0.0339617,VALID,19.623,VALID,93,VALID,0,
2000-03-23, 02:52:00,VALID,0,VALID,100,VALID,-0.0679233,VALID,19.6297,VALID,92,VALID,0.00685976,
2000-03-23, 02:53:00,VALID,0,VALID,100,VALID,0.0509425,VALID,19.6155,VALID,86,VALID,1.39961,
2000-03-23, 02:54:00,VALID,0,VALID,100,VALID,0.0339617,VALID,19.5725,VALID,92,VALID,1.26282,
2000-03-23, 02:55:00,VALID,0,VALID,100,VALID,0.0509425,VALID,19.5763,VALID,82,VALID,0.806066,
2000-03-23, 02:56:00,VALID,0,VALID,100,VALID,0.0849042,VALID,19.5569,VALID,63,VALID,0.657278,
2000-03-23, 02:57:00,VALID,0,VALID,100,VALID,0.0509425,VALID,19.5082,VALID,49,VALID,0.177849,
2000-03-23, 02:58:00,VALID,0,VALID,100,VALID,0.0679233,VALID,19.4992,VALID,51,VALID,0,
2000-03-23, 02:59:00,VALID,0,VALID,100,VALID,0.0849042,VALID,19.4724,VALID,45,VALID,0,
2000-03-23, 03:00:00,VALID,0,VALID,100,VALID,0.0849042,VALID,19.4754,VALID,73,VALID,0,
2000-03-23, 03:01:00,VALID,0,VALID,100,VALID,0.0509425,VALID,19.4789,VALID,102,VALID,0,
2000-03-23, 03:02:00,VALID,0,VALID,100,VALID,0.0339617,VALID,19.4856,VALID,102,VALID,0.364309,
2000-03-23, 03:03:00,VALID,0,VALID,100,VALID,0.0509425,VALID,19.492,VALID,92,VALID,1.22821,
2000-03-23, 03:04:00,VALID,0,VALID,100,VALID,0.0849042,VALID,19.4983,VALID,88,VALID,0.843149,
2000-03-23, 03:05:00,VALID,0,VALID,100,VALID,0.0509425,VALID,19.4595,VALID,85,VALID,0.916211,
2000-03-23, 03:06:00,VALID,0,VALID,100,VALID,0.0509425,VALID,19.4533,VALID,97,VALID,0.700863,
2000-03-23, 03:07:00,VALID,0,VALID,100,VALID,0.0169808,VALID,19.4692,VALID,112,VALID,0.172697,
2000-03-23, 03:08:00,VALID,0,VALID,100,VALID,0.0509425,VALID,19.4699,VALID,110,VALID,0.265625,
2000-03-23, 03:09:01,VALID,0,VALID,100,VALID,0.0339617,VALID,19.412,VALID,110,VALID,0.677885,
2000-03-23, 03:10:00,VALID,0,VALID,100,VALID,0.0339617,VALID,19.415,VALID,120,VALID,0.0587891,
2000-03-23, 03:11:00,VALID,0,VALID,100,VALID,0.0509425,VALID,19.4178,VALID,115,VALID,0,
2000-03-23, 03:12:00,VALID,0,VALID,100,VALID,0.0509425,VALID,19.4309,VALID,104,VALID,0.160714,
2000-03-23, 03:13:00,VALID,0,VALID,100,VALID,0.0339617,VALID,19.4118,VALID,31,VALID,0.385016,
2000-03-23, 03:14:00,VALID,0,VALID,100,VALID,0.0339617,VALID,19.4312,VALID,282,VALID,0.598273,
2000-03-23, 03:15:00,VALID,0,VALID,100,VALID,0.0339617,VALID,19.4732,VALID,288,VALID,0.501906,
2000-03-23, 03:16:00,VALID,0,VALID,100,VALID,0.0339617,VALID,19.5082,VALID,294,VALID,0.522035,
2000-03-23, 03:17:00,VALID,0,VALID,100,VALID,0.0679233,VALID,19.544,VALID,301,VALID,0.496833,
2000-03-23, 03:18:00,VALID,0,VALID,100,VALID,0.0679233,VALID,19.5472,VALID,317,VALID,0.400977,
2000-03-23, 03:19:00,VALID,0,VALID,100,VALID,0.0169808,VALID,19.5375,VALID,314,VALID,0.349662,
2000-03-23, 03:20:00,VALID,0,VALID,100,VALID,0.0849042,VALID,19.4985,VALID,303,VALID,0.462627,
2000-03-23, 03:21:01,VALID,0,VALID,100,VALID,0.0339617,VALID,19.5052,VALID,300,VALID,0.639648,
2000-03-23, 03:22:00,VALID,0,VALID,100,VALID,0.0849042,VALID,19.5017,VALID,304,VALID,0.59375,
2000-03-23, 03:23:00,VALID,0,VALID,100,VALID,0.0679233,VALID,19.5017,VALID,288,VALID,0.515625,
2000-03-23, 03:24:00,VALID,0,VALID,100,VALID,0.0679233,VALID,19.5079,VALID,299,VALID,0.338616,
2000-03-23, 03:25:00,VALID,0,VALID,100,VALID,0.0509425,VALID,19.5243,VALID,295,VALID,0.674805,
2000-03-23, 03:26:00,VALID,0,VALID,100,VALID,0.0509425,VALID,19.5139,VALID,309,VALID,0.775493,
2000-03-23, 03:27:00,VALID,0,VALID,100,VALID,0.0339617,VALID,19.5047,VALID,310,VALID,0.752467,
2000-03-23, 03:28:00,VALID,0,VALID,100,VALID,0.0509425,VALID,19.5251,VALID,306,VALID,0.440168,
2000-03-23, 03:29:00,VALID,0,VALID,100,VALID,0.0679233,VALID,19.5112,VALID,303,VALID,0.209375,
2000-03-23, 03:30:00,VALID,0,VALID,100,VALID,0.0339617,VALID,19.534,VALID,279,VALID,0.098157,
2000-03-23, 03:31:00,VALID,0,VALID,100,VALID,0.0339617,VALID,19.5532,VALID,272,VALID,0.00183824,
2000-03-23, 03:32:00,VALID,0,VALID,100,VALID,0.0339617,VALID,19.5668,VALID,231,VALID,0,
2000-03-23, 03:33:00,VALID,0,VALID,100,VALID,0.0509425,VALID,19.5859,VALID,241,VALID,0,
2000-03-23, 03:34:00,VALID,0,VALID,100,VALID,0.0509425,VALID,19.6019,VALID,245,VALID,0,
2000-03-23, 03:35:00,VALID,0,VALID,100,VALID,0.0339617,VALID,19.6048,VALID,246,VALID,0,
2000-03-23, 03:36:00,VALID,0,VALID,100,VALID,0.0509425,VALID,19.6088,VALID,246,VALID,0,
2000-03-23, 03:37:00,VALID,0,VALID,100,VALID,0.0679233,VALID,19.6284,VALID,194,VALID,0,
2000-03-23, 03:38:00,VALID,0,VALID,100,VALID,0.0509425,VALID,19.6277,VALID,138,VALID,0.303865,
2000-03-23, 03:39:00,VALID,0,VALID,100,VALID,0.0509425,VALID,19.6376,VALID,139,VALID,0.244038,
2000-03-23, 03:40:00,VALID,0,VALID,100,VALID,0.0679233,VALID,19.6115,VALID,151,VALID,0.0126202,
2000-03-23, 03:41:00,VALID,0,VALID,100,VALID,0.0679233,VALID,19.5956,VALID,171,VALID,0.0792969,
2000-03-23, 03:42:00,VALID,0,VALID,100,VALID,0.0679233,VALID,19.5924,VALID,198,VALID,0.0583882,
2000-03-23, 03:43:01,VALID,0,VALID,100,VALID,0.0849042,VALID,19.5668,VALID,197,VALID,0,
2000-03-23, 03:44:00,VALID,0,VALID,100,VALID,0.0509425,VALID,19.5343,VALID,196,VALID,0,
2000-03-23, 03:45:00,VALID,0,VALID,100,VALID,0.0509425,VALID,19.5112,VALID,196,VALID,0,
2000-03-23, 03:46:00,VALID,0,VALID,100,VALID,0.0509425,VALID,19.5117,VALID,195,VALID,0,
2000-03-23, 03:47:00,VALID,0,VALID,100,VALID,0.0679233,VALID,19.5144,VALID,195,VALID,0,
2000-03-23, 03:48:00,VALID,0.2,VALID,100,VALID,0.0849042,VALID,19.5442,VALID,203,VALID,0,
2000-03-23, 03:49:00,VALID,0.2,VALID,100,VALID,0.0509425,VALID,19.5604,VALID,232,VALID,0,
2000-03-23, 03:50:00,VALID,0.2,VALID,100,VALID,0.0509425,VALID,19.5859,VALID,254,VALID,0,
2000-03-23, 03:51:00,VALID,0.2,VALID,100,VALID,0.0679233,VALID,19.579,VALID,263,VALID,0,
2000-03-23, 03:52:00,VALID,0.2,VALID,100,VALID,0.0509425,VALID,19.5994,VALID,54,VALID,0,
2000-03-23, 03:53:00,VALID,0,VALID,100,VALID,0,VALID,19.5999,VALID,66,VALID,0,
2000-03-23, 03:54:01,VALID,0,VALID,100,VALID,-0.0339617,VALID,19.6232,VALID,88,VALID,0,
2000-03-23, 03:55:00,VALID,0.2,VALID,100,VALID,-0.0509425,VALID,19.5909,VALID,89,VALID,0,
2000-03-23, 03:56:00,VALID,0.2,VALID,100,VALID,-0.0169808,VALID,19.5807,VALID,95,VALID,0,
2000-03-23, 03:57:00,VALID,0,VALID,100,VALID,-0.0169808,VALID,19.5869,VALID,111,VALID,0,
2000-03-23, 03:58:00,VALID,0.2,VALID,100,VALID,-0.0339617,VALID,19.62,VALID,124,VALID,0,
2000-03-23, 03:59:00,VALID,0.2,VALID,100,VALID,-0.0509425,VALID,19.6033,VALID,166,VALID,0,
2000-03-23, 04:00:00,VALID,0,VALID,100,VALID,-0.0339617,VALID,19.5844,VALID,220,VALID,0.620089,
2000-03-23, 04:01:00,VALID,0.2,VALID,100,VALID,-0.0169808,VALID,19.545,VALID,208,VALID,1.2082,
2000-03-23, 04:02:00,VALID,0.2,VALID,100,VALID,-0.0339617,VALID,19.5286,VALID,199,VALID,1.12808,
2000-03-23, 04:03:00,VALID,0,VALID,100,VALID,-0.0169808,VALID,19.4995,VALID,193,VALID,1.06435,
2000-03-23, 04:04:00,VALID,0,VALID,100,VALID,0,VALID,19.4965,VALID,181,VALID,0.883575,
2000-03-23, 04:05:01,VALID,0,VALID,100,VALID,0,VALID,19.4771,VALID,204,VALID,0.825391,
2000-03-23, 04:06:00,VALID,0,VALID,100,VALID,0,VALID,19.4806,VALID,199,VALID,0.671875,
2000-03-23, 04:07:00,VALID,0,VALID,100,VALID,0,VALID,19.4679,VALID,232,VALID,0.954504,
2000-03-23, 04:08:00,VALID,0,VALID,100,VALID,-0.0169808,VALID,19.4744,VALID,204,VALID,0.810444,
2000-03-23, 04:09:00,VALID,0,VALID,100,VALID,0,VALID,19.4451,VALID,194,VALID,0.21852,
2000-03-23, 04:10:00,VALID,0,VALID,100,VALID,-0.0339617,VALID,19.4548,VALID,142,VALID,0.239509,
2000-03-23, 04:11:00,VALID,0,VALID,100,VALID,-0.0169808,VALID,19.4871,VALID,136,VALID,0.504729,
2000-03-23, 04:12:00,VALID,0,VALID,100,VALID,-0.0169808,VALID,19.4972,VALID,141,VALID,0.732897,
2000-03-23, 04:13:00,VALID,0,VALID,100,VALID,-0.0169808,VALID,19.5099,VALID,138,VALID,0.918069,
2000-03-23, 04:14:00,VALID,0,VALID,100,VALID,-0.0169808,VALID,19.4905,VALID,140,VALID,1.07175,
2000-03-23, 04:15:01,VALID,0,VALID,100,VALID,-0.0169808,VALID,19.5002,VALID,149,VALID,1.07669,
2000-03-23, 04:16:01,VALID,0,VALID,100,VALID,0,VALID,19.4771,VALID,147,VALID,0.640224,
2000-03-23, 04:17:00,VALID,0,VALID,100,VALID,-0.0169808,VALID,19.4781,VALID,149,VALID,0.0316406,
2000-03-23, 04:18:00,VALID,0,VALID,100,VALID,-0.0509425,VALID,19.4677,VALID,153,VALID,0,
2000-03-23, 04:19:00,VALID,0,VALID,100,VALID,-0.0509425,VALID,19.4739,VALID,229,VALID,0.0608553,